Findlay, OH

5:59 PM EDT on March 26, 2017 (GMT -0400)
Findlay

Weather History for KFDY - December, 2011

Change the Weather History Date:

Saturday, December 3, 2011

  Actual Average Record
Temperature  
Mean Temperature 39 °F -  
Max Temperature 48 °F 40 °F 69 °F (1982)
Min Temperature 30 °F 26 °F -6 °F (1976)
Degree Days  
Heating Degree Days 26    
Moisture  
Dew Point 33 °F    
Average Humidity 77    
Maximum Humidity 89    
Minimum Humidity 66    
Precipitation  
Precipitation 0.00 in - - ()
Sea Level Pressure  
Sea Level Pressure 30.36 in    
Wind  
Wind Speed 10 mph (SSE)    
Max Wind Speed 16 mph    
Max Gust Speed -    
Visibility 8 miles    
Events      
Averages and records for this station are not official NWS values.
T = Trace of Precipitation, MM = Missing Value Source: NWS Daily Summary

Daily Weather History Graph

Daily Weather History Graph

Search for Another Location

Airport or City:

Trip Planner

Search our weather history database for the weather conditions in past years. The results will help you decide how hot, cold, wet, or windy it might be!

Date:

Astronomy

Dec. 03, 2011 Rise Set
Actual Time 7:41 AM EST 5:06 PM EST
Civil Twilight 7:11 AM EST 5:37 PM EST
Nautical Twilight 6:37 AM EST 6:11 PM EST
Astronomical Twilight 6:03 AM EST 6:44 PM EST
Moon 1:13 PM EST (12/3) 1:06 AM EST (12/3)
Length of Visible Light 10h 26m
Length of Day
9h 24m
Waxing Gibbous, 62% of the Moon is Illuminated
Dec 3
Waxing Gibbous
Dec 10
Full
Dec 17
Last Quarter
Dec 24
New
Jan 1
First Quarter

Hourly Weather History & Observations

Time (EST) Temp. Windchill Dew Point Humidity Pressure Visibility Wind Dir Wind Speed Gust Speed Precip Events Conditions
12:53 AM 30.9 °F 24.3 °F 28.0 °F 89% 30.48 in 6.0 mi SE 6.9 mph - N/A   Clear
1:53 AM 30.9 °F 23.5 °F 28.0 °F 89% 30.47 in 5.0 mi SSE 8.1 mph - N/A   Clear
2:53 AM 32.0 °F 24.2 °F 28.9 °F 88% 30.46 in 5.0 mi SSE 9.2 mph - N/A   Clear
3:53 AM 33.1 °F 24.4 °F 28.9 °F 85% 30.45 in 5.0 mi SSE 11.5 mph - N/A   Clear
4:53 AM 33.1 °F 24.9 °F 30.0 °F 89% 30.45 in 6.0 mi SSE 10.4 mph - N/A   Clear
5:53 AM 33.1 °F 24.4 °F 30.0 °F 89% 30.43 in 5.0 mi SSE 11.5 mph - N/A   Clear
6:53 AM 34.0 °F 24.6 °F 30.0 °F 85% 30.43 in 6.0 mi SSE 13.8 mph - N/A   Clear
7:53 AM 34.0 °F 25.0 °F 30.0 °F 85% 30.43 in 6.0 mi SSE 12.7 mph - N/A   Clear
8:53 AM 35.1 °F 26.4 °F 30.9 °F 85% 30.44 in 6.0 mi SSE 12.7 mph - N/A   Clear
9:53 AM 37.0 °F 29.8 °F 32.0 °F 82% 30.44 in 6.0 mi SSE 10.4 mph - N/A   Haze
10:53 AM 41.0 °F 34.3 °F 34.0 °F 76% 30.43 in 10.0 mi SSE 11.5 mph - N/A   Overcast
11:53 AM 44.1 °F 38.6 °F 36.0 °F 73% 30.42 in 10.0 mi South 10.4 mph - N/A   Mostly Cloudy
12:53 PM 46.9 °F - 37.0 °F 68% 30.38 in 10.0 mi South 8.1 mph - N/A   Overcast
1:53 PM 48.0 °F - 37.9 °F 68% 30.36 in 10.0 mi SSE 6.9 mph - N/A   Overcast
3:53 PM 48.0 °F - 39.0 °F 71% 30.31 in 10.0 mi SE 9.2 mph - N/A   Mostly Cloudy
4:53 PM 48.0 °F - 37.9 °F 68% 30.30 in 10.0 mi SE 10.4 mph - N/A   Overcast
5:53 PM 46.9 °F - 37.0 °F 68% 30.28 in 10.0 mi SE 11.5 mph - N/A   Mostly Cloudy
6:53 PM 46.9 °F - 36.0 °F 66% 30.29 in 10.0 mi SSE 12.7 mph - N/A   Mostly Cloudy
7:53 PM 46.9 °F - 36.0 °F 66% 30.26 in 10.0 mi SSE 11.5 mph - N/A   Overcast
8:53 PM 45.0 °F 38.9 °F 35.1 °F 68% 30.24 in 10.0 mi SSE 12.7 mph - N/A   Clear
9:53 PM 45.0 °F 37.9 °F 35.1 °F 68% 30.22 in 10.0 mi SSE 16.1 mph - N/A   Clear
10:53 PM 44.1 °F 37.1 °F 34.0 °F 68% 30.21 in 10.0 mi SSE 15.0 mph - N/A   Clear
11:53 PM 43.0 °F 36.4 °F 34.0 °F 71% 30.18 in 10.0 mi SSE 12.7 mph - N/A   Clear